Flag for U.S.A. Weather past 2 weeks in Raleigh, North Carolina, U.S.A.

Now
72 °F

Passing clouds.


Feels Like: 69 °F
Forecast: 70 / 92 °F
Wind: No wind

Location: Raleigh-Durham International Airport

Current Time: Sep 2, 2015 at 1:24:22 AM

Latest Report: Sep 1, 2015 at 11:51 PM


Visibility: 10 mi

Pressure: 30.07 "Hg

Humidity: 91%

Dew point: 69 °F

Location of RaleighLocation

Historic Weather in Raleigh — Graph

°F

Raleigh temperature yesterday

Maximum temperature yesterday: 90 °F (at 2:51 PM)
Minimum temperature yesterday: 68 °F (at 7:01 AM)
Average temperature yesterday: 77 °F

Past Weeks' High & Low Weather Summary

 TemperatureHumidityPressure
High90 °F (Aug 20, 5:51 PM)100% (Sep 1, 3:51 AM)30.23 "Hg (Sep 1, 3:51 AM)
Low60 °F (Aug 29, 5:51 AM)35% (Aug 28, 3:51 PM)29.85 "Hg (Aug 24, 6:51 PM)
Average76 °F71%30.03 "Hg
* Reported Aug 17 11:51 PM — Sep 1 11:51 PM, Raleigh, Weather by CustomWeather, © 2015

Note: Actual official high and low records may vary slightly from our data, if they occured in-between our weather recording intervals... More about our weather records

Advertising

Raleigh weather history for previous 24 hours

 ConditionsComfort  
Time TempWeatherWind HumidityBarometerVisibility
11:51 PM
Tue, Sep 1
72 °FPassing clouds.No wind91%30.07 "Hg10 mi
10:51 PM74 °FPassing clouds.No wind85%30.06 "Hg10 mi
9:51 PM76 °FPassing clouds.No wind80%30.07 "Hg10 mi
8:51 PM74 °FPassing clouds.3 mph85%30.06 "Hg10 mi
7:51 PM81 °FPartly sunny.No wind69%30.03 "Hg10 mi
6:51 PM87 °FPartly sunny.3 mph53%30.03 "Hg10 mi
4:51 PM89 °FBroken clouds.3 mph45%30.04 "Hg10 mi
3:51 PM86 °FScattered clouds.No wind53%30.04 "Hg10 mi
2:51 PM90 °FScattered clouds.5 mph48%30.05 "Hg10 mi
1:51 PM88 °FScattered clouds.No wind46%30.06 "Hg10 mi
12:51 PM87 °FScattered clouds.No wind51%30.08 "Hg10 mi
11:51 AM85 °FScattered clouds.6 mph61%30.10 "Hg10 mi
10:51 AM83 °FScattered clouds.No wind65%30.11 "Hg10 mi
9:51 AM78 °FPassing clouds.No wind76%30.10 "Hg10 mi
8:51 AM73 °FPassing clouds.No wind90%30.10 "Hg10 mi
7:51 AM69 °FScattered clouds.No wind96%30.10 "Hg10 mi
7:01 AM68 °FFog.No wind94%30.10 "Hg1 mi
5:51 AM69 °FFog.No wind96%30.07 "Hg1 mi
4:51 AM70 °FFog.No wind93%30.06 "Hg0 mi
3:51 AM69 °FFog.No wind100%30.06 "Hg0 mi
2:51 AM69 °FFog.No wind96%30.07 "Hg0 mi
1:51 AM69 °FFog.No wind96%30.07 "Hg0 mi
1:03 AM70 °FFog.No wind94%30.09 "Hg5 mi
Weather by CustomWeather, © 2015

See weather overviewHow to use our weather pages